STARLINK-36535, 67986

Orbit data source: Space-Track

STARLINK-36535, 67986 is a payload satellite owned by SpaceX/Seattle (US) in LEO that was launched on Fri, 27 Feb 2026 UTC via an FALCON 9 launch vehicle from the Air Force Eastern Test Range (AFETR). Payload-class satellites include a variety of spacecraft equipped with specific instruments for various scientific and technological missions. These include communications satellites like Starlink; space stations such as the ISS; scientific satellites like the Hubble; Earth observation satellites from companies like Planet Labs, Umbra, and HawkEye 360; GPS; miniature CubeSats for education and research; and military/defense satellites.

Loading next visibility...
Identifier
67986, 2026-039A
Orbit
LEO
Country
Flag of USUS
Related business
Manufacturer
SpaceX/Seattle
Mission
Operational Commercial Communications
Bus & Motor
STARLINK V2MO, Unknown motor
Mass
575 kg wet, ~530 kg dry
Launch date (UTC)
2026-02-27 (2 months ago)
Launch vehicle
FALCON 9
Launch site
Air Force Eastern Test Range (AFETR)
Object type
Payload
Rocket body
Debris
Shape & HBR
Box + 2 Pan, 17.7 m
Radar Cross Section
36.964 m²

Expand to show TLE details & history
Last TLE update: 10 hours ago

TLE from 10 hours ago
0 STARLINK-36535
1 67986U 26039A   26119.26395723  .00021477  00000-0  78748-3 0  9990
2 67986  43.0027 123.7019 0001584 258.8268 101.2406 15.27590231  9439
Epoch: 2026-04-29T06:20Z
TLE epoch observation values (Epoch: 2026-04-29T06:20:05.904Z)
Latitude
-0°
Longitude
171.44988°
Altitude
483.006 km
Speed
7.626 km/s
True Right ascension
08h 14m 48s
True Declination
0° 00' 00"
Sunlit
Object was in daylight at epoch
Visualization orbit readout
Latitude
Unknown
Longitude
Unknown
Altitude
Unknown
Speed
Unknown
Apparent Right ascension
Unknown
Apparent Declination
Unknown
Sunlit
N/A
Visualization observer readout
Local Sidereal Time
00:03:09
Azimuth
Unknown
Elevation
Unknown
Doppler factor
Unknown
Orbital elements
Apogee altitude
486.05 km
Perigee altitude
483.876 km
Semi-major axis
6,863.1 km
Eccentricity
0.00016
Inclination
43.0027°
RAAN
123.7019°
Arg. of periapsis
258.8268°
True anomaly
101.2584°
Mean anomaly
101.2406°
Eccentric anomaly
101.2495°
Mean motion
3.81736 °/min
Orbital period
94.31 mins
BSTAR
0.00078748
Loading maneuver chart data...
Computing Atmospheric mass density...
Loading historical data...
Loading historical data...
Loading historical data...
Loading historical data...
Loading historical data...
Loading historical data...
Loading historical data...

Documentation

Showing up to 5 results
|